sat.trackr.live / text

‹ back to catalog

STARLINK-34811

NORAD 65396 · 2025-191T

PAYLOAD ACTIVE UNKNOWN

§ Identity

Operator
Country
US
Launch date
2025-08-30
Launch site
AFWTR
Launch vehicle
Mass (kg)
RCS (m²)

Purposes: comms

External: N2YO · Heavens-Above · Gunter

§ Orbital elements

Epoch: 2026-05-25T02:28:11.773056Z

Period
95.64 min
Inclination
97.4510°
Eccentricity
0.0002998
Mean motion
15.05658672 rev/d
Perigee alt
547.4 km
Apogee alt
551.6 km
Semi-major
6,927.6 km
B*
1.9625e-4
RAAN
16.4126°
Arg perigee
85.4100°
Mean anomaly
274.7470°
Rev number
4,176

§ Raw data

STARLINK-348111 65396U 25191T   26145.10291404  .00002775  00000+0  19625-3 0  99922 65396  97.4510  16.4126 0002998  85.4100 274.7470 15.05658672 41767

JSON: /api/v1/satellites/65396 · /tle

For live sub-satellite position, see the globe view (requires WebGL).

§ Visibility from observer

Set your observer location to see the next 7 days of passes ≥ 10°. The values pass through the URL so the page stays shareable.

No JS? Fill the form by hand. The geolocation button needs JavaScript.